SAS164 ESSA-ESGG

Flight info

Callsign SAS164
Flight time 0h 42m
Altitude 32000
Route ARS N623 BEDLA N866 LAPSI DCT MOXAM
Aircraft A321/M-SDE3FGHIRWY/LB1

Departure

Time 2026-05-06 16:48
Airport Stockholm-Arlanda Airport (ESSA)

Arrival

Time 2026-05-06 17:30
Airport Göteborg Landvetter Airport (ESGG)
Time Latitude Longitude Altitude Speed Heading
2026-05-06 16:29 59.65289 17.92954 109 ft 0 kts 71°
2026-05-06 16:42 59.65288 17.92951 112 ft 2 kts 71°
2026-05-06 16:42 59.65279 17.92903 112 ft 4 kts 70°
2026-05-06 16:42 59.65268 17.92857 109 ft 4 kts 43°
2026-05-06 16:43 59.65246 17.92834 110 ft 4 kts 356°
2026-05-06 16:43 59.65232 17.92842 109 ft 1 kts 331°
2026-05-06 16:43 59.65230 17.92844 109 ft 0 kts 331°
2026-05-06 16:45 59.65238 17.92835 111 ft 5 kts 331°
2026-05-06 16:45 59.65302 17.92766 112 ft 14 kts 332°
2026-05-06 16:46 59.65397 17.92665 112 ft 16 kts 332°
2026-05-06 16:46 59.65512 17.92544 105 ft 21 kts 337°
2026-05-06 16:46 59.65662 17.92463 102 ft 23 kts 346°
2026-05-06 16:46 59.65804 17.92435 105 ft 20 kts 10°
2026-05-06 16:47 59.65908 17.92382 109 ft 15 kts 294°
2026-05-06 16:47 59.65927 17.92193 114 ft 13 kts 274°
2026-05-06 16:47 59.65862 17.92097 114 ft 23 kts 189°
2026-05-06 16:47 59.65356 17.91915 106 ft 121 kts 190°
2026-05-06 16:48 59.64315 17.91522 438 ft 166 kts 187°
2026-05-06 16:48 59.63195 17.91113 1637 ft 165 kts 188°
2026-05-06 16:48 59.62069 17.90700 2399 ft 169 kts 191°
2026-05-06 16:48 59.61027 17.89402 2677 ft 195 kts 231°
2026-05-06 16:49 59.60292 17.86982 2952 ft 215 kts 236°
2026-05-06 16:49 59.59515 17.84392 3518 ft 222 kts 238°
2026-05-06 16:49 59.58719 17.81765 4259 ft 224 kts 239°
2026-05-06 16:49 59.57949 17.78988 4752 ft 242 kts 242°
2026-05-06 16:50 59.57164 17.75926 5360 ft 255 kts 245°
2026-05-06 16:50 59.56718 17.72509 6167 ft 262 kts 268°
2026-05-06 16:50 59.56796 17.68911 7058 ft 263 kts 272°
2026-05-06 16:50 59.56887 17.65298 7954 ft 265 kts 272°
2026-05-06 16:51 59.56970 17.61651 8832 ft 267 kts 272°
2026-05-06 16:51 59.57051 17.57975 9720 ft 269 kts 272°
2026-05-06 16:51 59.57130 17.54250 10356 ft 280 kts 272°
2026-05-06 16:51 59.57211 17.50259 10577 ft 303 kts 272°
2026-05-06 16:52 59.57296 17.45970 10875 ft 320 kts 272°
2026-05-06 16:52 59.57285 17.41542 11458 ft 327 kts 262°
2026-05-06 16:52 59.56653 17.37199 12144 ft 331 kts 250°
2026-05-06 16:52 59.55838 17.32942 12880 ft 333 kts 250°
2026-05-06 16:53 59.55004 17.28661 13624 ft 336 kts 249°
2026-05-06 16:53 59.54156 17.24351 14284 ft 338 kts 249°
2026-05-06 16:53 59.53299 17.20025 14967 ft 340 kts 249°
2026-05-06 16:53 59.52437 17.15680 15656 ft 341 kts 249°
2026-05-06 16:54 59.51574 17.11319 16353 ft 342 kts 249°
2026-05-06 16:54 59.50708 17.06954 17099 ft 342 kts 249°
2026-05-06 16:54 59.49840 17.02590 17792 ft 343 kts 249°
2026-05-06 16:54 59.48964 16.98201 18417 ft 345 kts 249°
2026-05-06 16:55 59.48087 16.93796 18982 ft 347 kts 249°
2026-05-06 16:55 59.47204 16.89379 19543 ft 348 kts 249°
2026-05-06 16:55 59.46316 16.84946 20103 ft 349 kts 249°
2026-05-06 16:55 59.45424 16.80502 20666 ft 350 kts 248°
2026-05-06 16:56 59.44526 16.76037 21218 ft 352 kts 248°
2026-05-06 16:56 59.43625 16.71562 21766 ft 353 kts 248°
2026-05-06 16:56 59.42720 16.67074 22297 ft 354 kts 248°
2026-05-06 16:56 59.41810 16.62568 22825 ft 356 kts 248°
2026-05-06 16:57 59.40893 16.58039 23357 ft 357 kts 248°
2026-05-06 16:57 59.39970 16.53490 23793 ft 359 kts 248°
2026-05-06 16:57 59.39045 16.48942 24220 ft 360 kts 248°
2026-05-06 16:57 59.38112 16.44366 24651 ft 361 kts 248°
2026-05-06 16:58 59.37175 16.39786 25072 ft 363 kts 247°
2026-05-06 16:58 59.36230 16.35191 25491 ft 364 kts 247°
2026-05-06 16:58 59.35278 16.30575 25941 ft 365 kts 246°
2026-05-06 16:58 59.34325 16.25953 26353 ft 367 kts 246°
2026-05-06 16:59 59.33378 16.21374 26766 ft 368 kts 246°
2026-05-06 16:59 59.32402 16.16662 27167 ft 369 kts 246°
2026-05-06 16:59 59.31431 16.11987 27575 ft 371 kts 246°
2026-05-06 16:59 59.30457 16.07304 27975 ft 372 kts 246°
2026-05-06 17:00 59.29481 16.02606 28379 ft 374 kts 246°
2026-05-06 17:00 59.28501 15.97893 28768 ft 375 kts 246°
2026-05-06 17:00 59.27526 15.93227 29141 ft 376 kts 245°
2026-05-06 17:00 59.26530 15.88483 29500 ft 377 kts 245°
2026-05-06 17:01 59.25529 15.83722 29833 ft 379 kts 245°
2026-05-06 17:01 59.24526 15.78951 30126 ft 380 kts 245°
2026-05-06 17:01 59.23513 15.74164 30374 ft 382 kts 245°
2026-05-06 17:01 59.22495 15.69370 30692 ft 381 kts 245°
2026-05-06 17:02 59.21478 15.64583 30937 ft 382 kts 245°
2026-05-06 17:02 59.20461 15.59793 31217 ft 382 kts 245°
2026-05-06 17:02 59.19441 15.54993 31547 ft 382 kts 245°
2026-05-06 17:02 59.18417 15.50201 31811 ft 383 kts 244°
2026-05-06 17:03 59.17386 15.45401 31932 ft 380 kts 244°
2026-05-06 17:03 59.15391 15.36135 31949 ft 369 kts 244°
2026-05-06 17:04 59.13400 15.26935 31948 ft 368 kts 244°
2026-05-06 17:04 59.11411 15.17751 31946 ft 368 kts 244°
2026-05-06 17:05 59.09420 15.08582 31949 ft 368 kts 244°
2026-05-06 17:05 59.07418 14.99431 31948 ft 368 kts 244°
2026-05-06 17:06 59.05404 14.90283 31943 ft 368 kts 244°
2026-05-06 17:06 59.03714 14.82632 31926 ft 368 kts 244°
2026-05-06 17:07 59.01690 14.73488 31960 ft 368 kts 244°
2026-05-06 17:07 58.99674 14.64421 31950 ft 368 kts 244°
2026-05-06 17:08 58.97636 14.55301 31952 ft 368 kts 244°
2026-05-06 17:08 58.95591 14.46217 31952 ft 368 kts 244°
2026-05-06 17:09 58.93536 14.37131 31955 ft 368 kts 244°
2026-05-06 17:09 58.91211 14.28339 31954 ft 366 kts 233°
2026-05-06 17:10 58.88161 14.20442 31961 ft 367 kts 233°
2026-05-06 17:10 58.85097 14.12539 31722 ft 367 kts 233°
2026-05-06 17:10 58.83571 14.08593 31471 ft 366 kts 233°
2026-05-06 17:11 58.82046 14.04649 30743 ft 369 kts 233°
2026-05-06 17:11 58.80479 14.00621 29105 ft 381 kts 233°
2026-05-06 17:11 58.78884 13.96526 27867 ft 382 kts 233°
2026-05-06 17:11 58.77307 13.92484 27271 ft 369 kts 233°
2026-05-06 17:12 58.75796 13.88615 26831 ft 354 kts 234°
2026-05-06 17:12 58.74344 13.84902 26388 ft 340 kts 234°
2026-05-06 17:12 58.72943 13.81332 25967 ft 329 kts 234°
2026-05-06 17:12 58.71571 13.77842 25553 ft 328 kts 234°
2026-05-06 17:13 58.70191 13.74333 25137 ft 328 kts 234°
2026-05-06 17:13 58.68815 13.70842 24725 ft 328 kts 234°
2026-05-06 17:13 58.67438 13.67354 24317 ft 327 kts 234°
2026-05-06 17:13 58.66066 13.63874 23928 ft 327 kts 234°
2026-05-06 17:14 58.64692 13.60400 23523 ft 326 kts 234°
2026-05-06 17:14 58.63319 13.56943 23083 ft 325 kts 234°
2026-05-06 17:14 58.61950 13.53501 22692 ft 324 kts 234°
2026-05-06 17:14 58.60582 13.50058 22295 ft 324 kts 234°
2026-05-06 17:15 58.59219 13.46628 21943 ft 324 kts 235°
2026-05-06 17:15 58.57854 13.43199 21572 ft 323 kts 235°
2026-05-06 17:15 58.56510 13.39832 21202 ft 322 kts 234°
2026-05-06 17:15 58.55133 13.36388 20804 ft 321 kts 234°
2026-05-06 17:16 58.53779 13.33062 20434 ft 321 kts 232°
2026-05-06 17:16 58.52147 13.30054 19978 ft 323 kts 221°
2026-05-06 17:16 58.50316 13.27554 19532 ft 324 kts 219°
2026-05-06 17:16 58.48497 13.25112 19079 ft 323 kts 219°
2026-05-06 17:17 58.46660 13.22637 18610 ft 322 kts 219°
2026-05-06 17:17 58.44834 13.20171 18137 ft 321 kts 219°
2026-05-06 17:17 58.43014 13.17715 17597 ft 320 kts 219°
2026-05-06 17:17 58.41197 13.15267 17144 ft 318 kts 219°
2026-05-06 17:18 58.39392 13.12844 16663 ft 316 kts 218°
2026-05-06 17:18 58.37595 13.10438 16189 ft 315 kts 218°
2026-05-06 17:18 58.35785 13.08011 15917 ft 328 kts 218°
2026-05-06 17:18 58.33888 13.05460 15922 ft 338 kts 218°
2026-05-06 17:19 58.31958 13.02870 15930 ft 341 kts 218°
2026-05-06 17:19 58.29998 13.00254 15227 ft 347 kts 217°
2026-05-06 17:19 58.27998 12.97590 14294 ft 354 kts 217°
2026-05-06 17:19 58.25990 12.94921 13288 ft 348 kts 217°
2026-05-06 17:20 58.24002 12.92279 12448 ft 345 kts 216°
2026-05-06 17:20 58.22074 12.89722 12050 ft 331 kts 216°
2026-05-06 17:20 58.20179 12.87212 11558 ft 335 kts 216°
2026-05-06 17:20 58.18266 12.84676 11034 ft 335 kts 216°
2026-05-06 17:21 58.16357 12.82151 10559 ft 333 kts 215°
2026-05-06 17:21 58.14471 12.79665 10361 ft 331 kts 215°
2026-05-06 17:21 58.12608 12.77213 10270 ft 317 kts 215°
2026-05-06 17:21 58.10842 12.74889 10100 ft 301 kts 215°
2026-05-06 17:22 58.09190 12.72676 9875 ft 282 kts 216°
2026-05-06 17:22 58.07629 12.70537 9651 ft 273 kts 216°
2026-05-06 17:22 58.06094 12.68420 9177 ft 274 kts 216°
2026-05-06 17:22 58.04554 12.66299 8667 ft 275 kts 216°
2026-05-06 17:23 58.03006 12.64180 8165 ft 276 kts 215°
2026-05-06 17:23 58.01478 12.62097 7639 ft 264 kts 215°
2026-05-06 17:23 58.00029 12.60121 7169 ft 250 kts 215°
2026-05-06 17:23 57.98643 12.58231 6708 ft 242 kts 214°
2026-05-06 17:24 57.97260 12.56447 6261 ft 239 kts 208°
2026-05-06 17:24 57.95779 12.55063 5844 ft 238 kts 205°
2026-05-06 17:24 57.94293 12.53695 5432 ft 238 kts 205°
2026-05-06 17:24 57.92806 12.52321 4994 ft 237 kts 205°
2026-05-06 17:25 57.91323 12.50952 4540 ft 238 kts 205°
2026-05-06 17:25 57.89832 12.49578 4093 ft 238 kts 206°
2026-05-06 17:25 57.88358 12.48218 4014 ft 238 kts 206°
2026-05-06 17:25 57.86865 12.46842 3951 ft 239 kts 206°
2026-05-06 17:26 57.85394 12.45486 3871 ft 230 kts 206°
2026-05-06 17:26 57.83991 12.44194 3783 ft 219 kts 206°
2026-05-06 17:26 57.82645 12.42955 3667 ft 210 kts 206°
2026-05-06 17:26 57.81343 12.41759 3600 ft 207 kts 206°
2026-05-06 17:27 57.80045 12.40567 3332 ft 208 kts 206°
2026-05-06 17:27 57.78750 12.39379 3012 ft 206 kts 207°
2026-05-06 17:27 57.77473 12.38209 2755 ft 201 kts 208°
2026-05-06 17:27 57.76251 12.37090 2492 ft 191 kts 207°
2026-05-06 17:28 57.75113 12.36049 2242 ft 175 kts 208°
2026-05-06 17:28 57.74029 12.35056 2002 ft 171 kts 210°
2026-05-06 17:28 57.72981 12.34097 1779 ft 170 kts 209°
2026-05-06 17:28 57.71930 12.33137 1521 ft 161 kts 209°
2026-05-06 17:29 57.70959 12.32251 1307 ft 151 kts 211°
2026-05-06 17:29 57.70021 12.31394 1092 ft 148 kts 212°
2026-05-06 17:29 57.69102 12.30555 886 ft 147 kts 211°
2026-05-06 17:29 57.68194 12.29729 713 ft 142 kts 210°
2026-05-06 17:30 57.67322 12.28924 544 ft 138 kts 209°
2026-05-06 17:30 57.66581 12.28245 524 ft 95 kts 205°
2026-05-06 17:30 57.66235 12.27927 516 ft 15 kts 206°
2026-05-06 17:30 57.66148 12.27957 517 ft 14 kts 140°
2026-05-06 17:31 57.66106 12.28099 518 ft 10 kts 107°
2026-05-06 17:31 57.66141 12.28199 519 ft 10 kts 26°
2026-05-06 17:31 57.66210 12.28259 519 ft 12 kts 25°
2026-05-06 17:31 57.66289 12.28333 520 ft 14 kts 27°
2026-05-06 17:32 57.66395 12.28431 522 ft 20 kts 25°
2026-05-06 17:32 57.66520 12.28544 523 ft 21 kts 26°
2026-05-06 17:32 57.66652 12.28664 524 ft 21 kts 25°
2026-05-06 17:32 57.66789 12.28785 525 ft 22 kts 27°
2026-05-06 17:33 57.66929 12.28915 527 ft 23 kts 26°
2026-05-06 17:33 57.67039 12.29052 528 ft 16 kts 81°
2026-05-06 17:33 57.66993 12.29261 528 ft 19 kts 117°
2026-05-06 17:33 57.66946 12.29418 528 ft 7 kts 116°
2026-05-06 17:34 57.66933 12.29466 528 ft 0 kts 116°